Regional Weather Roundup
Issued by NWS

Home | Current Version | Previous Version | Text Only | Print | Product List | Glossary Off
Versions: 1 2 3 4 5 6 7 8 9 10 11 12 13 14 15 16 17 18 19 20 21 22 23 24 25 26 27 28 29 30 31 32 33 34 35 36 37 38 39 40 41 42 43 44 45 46 47 48 49 50

000
ASUS43 KLMK 241610
RWRKY
KENTUCKY REGIONAL WEATHER ROUNDUP
NATIONAL WEATHER SERVICE LOUISVILLE KY
1100 AM EST TUE JAN 24 2017

NOTE "FAIR" INDICATES FEW OR NO CLOUDS BELOW 12,000 FEET
WITH NO SIGNIFICANT WEATHER AND/OR OBSTRUCTIONS TO VISIBILITY.

KYZ001>023-026-027-061>063-070>075-241700-
WESTERN AND SOUTH CENTRAL KENTUCKY

CITY           SKY/WX    TMP DP  RH WIND       PRES   REMARKS
PADUCAH        SUNNY     44  34  67 SE9       29.93S
HENDERSON      CLOUDY    43  30  61 CALM      29.94S
OWENSBORO      CLOUDY    41  34  76 NE3       29.96R
HOPKINSVILLE   CLOUDY    42  34  73 E6        29.95R
BOWLING GREEN  CLOUDY    42  34  73 VRB3      29.97R
GLASGOW        CLOUDY    40  35  81 NW3       29.96R
$$

KYZ024-025-028>034-038-045-046-053-241700-
NORTH CENTRAL KENTUCKY

CITY           SKY/WX    TMP DP  RH WIND       PRES   REMARKS
LOUISVILLE/SDF CLOUDY    44  33  65 W12       29.93R
LOUISVILLE/LOU CLOUDY    44  33  65 NW12      29.93R
FORT KNOX      CLOUDY    41  34  74 NW7       29.92R
$$

KYZ035>037-039>044-047>052-055>060-089>105-241700-
NORTHEAST KENTUCKY

CITY           SKY/WX    TMP DP  RH WIND       PRES   REMARKS
LEXINGTON      CLOUDY    41  37  86 W10       29.90R
COVINGTON      CLOUDY    42  39  89 NW10      29.87R
FRANKFORT      CLOUDY    43  36  76 VRB6      29.90R
$$

KYZ054-064>069-076>088-106>120-241700-
SOUTHEAST KENTUCKY

CITY           SKY/WX    TMP DP  RH WIND       PRES   REMARKS
JACKSON        CLOUDY    40  38  93 VRB5      29.87R
LONDON         CLOUDY    40  38  93 W12       29.91R WCI  33
SOMERSET       CLOUDY    37  37 100 W7        29.95R WCI  32
MIDDLESBORO    CLOUDY    42  39  89 W7        29.92R
MONTICELLO     CLOUDY    40  36  86 W13       29.97R WCI  32
$$




USA.gov is the U.S. government's official web portal to all federal, state and local government web resources and services.